SL-14 DEB, 46465

Orbit data source: Space-Track

SL-14 DEB, 46465 is space debris in LEO originally from a launch on Thu, 15 Aug 1991 UTC launched from the Plesetsk Missile And Space Complex (PKMTR). Debris objects in space refer to the collection of defunct objects orbiting the Earth. Examples of debris include non-operational satellites, rocket bodies, and fragments generated from explosions, collisions, or faulty payload assembly.

Loading next visibility...
Identifier
46465, 1991-056DA
Orbit
LEO
Country
Flag of CISCIS
Related business
Manufacturer
Unknown
Mission
Spacecraft
Bus & Motor
Unknown
Mass
Unknown
Launch date (UTC)
1991-08-15 (35 years ago)
Launch vehicle
Unknown
Launch site
Plesetsk Missile And Space Complex (PKMTR)
Object type
Payload
Rocket body
Debris
Shape & HBR
Unknown shape, 0.1 m
Radar Cross Section
Medium (>0.1 m² and <1 m²)

Expand to show TLE details & history
Last TLE update: 2 days ago

TLE from 2 days ago
0 SL-14 DEB
1 46465U 91056DA  26256.27522711 -.00000548  00000-0 -15636-2 0  9996
2 46465  82.5565  94.1413 0028858  80.4549 279.9829 13.12057283292530
Epoch: 2026-09-13T06:36Z
TLE epoch observation values (Epoch: 2026-09-13T06:36:19.622Z)
Latitude
-0.00007°
Longitude
2.78732°
Altitude
1,214.274 km
Speed
7.249 km/s
True Right ascension
06h 16m 33s
True Declination
0° 00' 00"
Sunlit
Object was in daylight at epoch
Visualization orbit readout
Latitude
Unknown
Longitude
Unknown
Altitude
Unknown
Speed
Unknown
Apparent Right ascension
Unknown
Apparent Declination
Unknown
Sunlit
N/A
Visualization observer readout
Local Sidereal Time
16:02:50
Azimuth
Unknown
Elevation
Unknown
Doppler factor
Unknown
Orbital elements
Apogee altitude
1,234.367 km
Perigee altitude
1,190.558 km
Semi-major axis
7,590.599 km
Eccentricity
0.00289
Inclination
82.5565°
RAAN
94.1413°
Arg. of periapsis
80.4549°
True anomaly
279.65702°
Mean anomaly
279.9829°
Eccentric anomaly
279.81998°
Mean motion
3.28193 °/min
Orbital period
109.69 mins
BSTAR
-0.0015636
Loading maneuver chart data...
Computing Atmospheric mass density...
Loading historical data...
Loading historical data...
Loading historical data...
Loading historical data...
Loading historical data...
Loading historical data...
Loading historical data...

Documentation

Showing up to 5 results
|